User: anonymous   Login
Location: Vancouver
(49.2500°N, 123.1330°W)
Time: 13:14:39
(UTC-07:00)
Language:

Iridium 21 - Orbit

View from above orbital plane
View from above orbital plane
View from above satellite
View from above satellite

Ground track
Ground track

The orbit data is extracted from the following two-line orbital elements,

1 25778U 99032B   18115.47206203 -.00000018  00000-0 -13353-4 0  9992
2 25778  86.3931  93.4703 0002191  86.6166 273.5280 14.34214509992878
Epoch (UTC): 25 April 2018 11:19:46
Eccentricity: 0.0002191
inclination: 86.3931°
perigee height: 776 km
apogee height: 779 km
right ascension of ascending node: 93.4703°
argument of perigee: 86.6166°
revolutions per day: 14.34214509
mean anomaly at epoch: 273.5280°
orbit number at epoch: 99287

The dashed part of the orbit path shows where the satellite is in the earth's shadow,  

DLR